Find WHDW 02-08

NORAD ID: 62978 Int'l Des: 2025-030 Owner: ZXW Country: CN Constellation: xingwang operational
LEOCIRCULAR

Aktuelle Ansicht

3D-Globus wird geladen...

Über WHDW 02-08

Beschreibung wird geladen...

Nächste Überflüge

Passes for default location (London). Set your location on the main map for personalized predictions.

Höhenverlauf

Loading altitude history...

Zweizeiliger Elementsatz

1 62978U 25030H 26149.98341071 -.00000102 00000-0 48073-4 0 9997
2 62978 50.0075 300.8163 0001263 109.0058 251.0951 13.29324640 63441
Epoch: 29. Mai 2026 • Age: 11 hours

Aktueller Status

Höhe 1151.1 km
Geschwindigkeit 7.28 km/s
Subsatellitenpunkt -5.34°S, 109.11°W
Startdatum 11. Feb. 2025
Alter 1.2 years
Typ other

Technische Details

Klassifizierung Payload
Masse 700.00 kg
Trockenmasse 700.00 kg
Gesamtmasse 700.00 kg
Länge 3.00 m
Durchmesser 1.00 m
Spannweite 10.00 m
Form Box + 2 Pan
Hersteller CAST
Bus-Typ Xingwang C
Phasenstatus In Orbit
Besitzer/Staat ZXW/CN

Most Searched